This demonstration page uses our WeatherBlox Daily Observations layout. Learn more.

Left ArrowRight Arrow

38.20091, -84.87328

Hourly Observations for May 8, 2020

Temp ( °F °C ) Dew Point ( °F °C ) Humidity (%) Winds ( mph kmh ) Pressure ( in mb ) Visibility ( mi km ) Precip ( " mm )
12:53 am 00:53 Mostly Clear 49 9.4 40 4.4 71 71 SW 6 9 29.95 1014 10 16 0.00 0.00
1:53 am 01:53 Clear 49 9.4 40 4.4 71 71 SW 8 13 29.95 1014 10 16 0.00 0.00
2:53 am 02:53 Clear 50 10 41 5 71 71 SW 8 13 29.92 1013 10 16 0.00 0.00
3:53 am 03:53 Mostly Clear 51 10.6 42 5.6 71 71 SW 6 9 29.91 1013 10 16 0.00 0.00
4:53 am 04:53 Partly Cloudy 51 10.6 41 5 69 69 SSW 6 9 29.85 1011 10 16 0.00 0.00
5:53 am 05:53 Cloudy 52 11.1 42 5.6 69 69 SSW 6 9 29.86 1011 10 16 0.00 0.00
6:53 am 06:53 Cloudy 52 11.1 42 5.6 69 69 VRB 3 6 29.85 1011 10 16 0.00 0.00
7:53 am 07:53 Cloudy with Light Rain 51 10.6 44 6.7 77 77 SW 7 11 29.87 1011 10 16 0.00 0.00
8:53 am 08:53 Cloudy with Light Rain 51 10.6 46 7.8 83 83 SW 6 9 29.85 1011 5 8 0.03 0.76
9:53 am 09:53 Cloudy with Rain 50 10 47 8.3 89 89 SSW 8 13 29.82 1010 3 4 0.06 1.52
10:05 am 10:05 Cloudy with Light Rain 51 10.6 47 8.3 86 86 SSW 10 17 29.83 1010 5 8 0.01 0.25
10:14 am 10:14 Cloudy with Light Rain 51 10.6 48 8.9 89 89 SW 9 15 29.83 1010 6 10 0.01 0.25
10:29 am 10:29 Cloudy with Light Rain 51 10.6 48 8.9 89 89 SW 7 11 29.83 1010 5 8 0.02 0.51
10:53 am 10:53 Cloudy with Rain 52 11.1 49 9.4 89 89 SW 7 11 29.82 1010 3 5 0.06 1.52
11:00 am 11:00 Cloudy with Rain 52 11.1 49 9.4 89 89 SSW 7 11 29.83 1010 2 3 0.02 0.51
11:27 am 11:27 Cloudy with Heavy Rain 52 11.1 49 9.4 89 89 WSW 5 7 29.82 1010 2 2 0.12 3.05
11:39 am 11:39 Cloudy with Rain 53 11.7 50 10 89 89 undefined N/A 29.81 1010 3 4 0.14 3.56
11:46 am 11:46 Cloudy with Rain 53 11.7 49 9.4 86 86 WSW 10 17 29.81 1010 3 5 0.16 4.06
11:53 am 11:53 Cloudy with Rain 53 11.7 50 10 89 89 WSW 9 15 29.81 1010 3 5 0.17 4.32
12:07 pm 12:07 Cloudy with Rain 53 11.7 50 10 89 89 W 8 13 29.81 1010 2 3 0.06 1.52
12:21 pm 12:21 Cloudy with Rain 53 11.7 49 9.4 86 86 WNW 9 15 29.83 1010 2 3 0.13 3.30
12:30 pm 12:30 Cloudy with Heavy Rain 50 10 46 7.8 86 86 NNW 15 24 29.84 1010 2 2 0.21 5.33
12:35 pm 12:35 Cloudy with Rain 50 10 46 7.8 86 86 NNW 10 17 29.85 1011 2 3 0.23 5.84
12:40 pm 12:40 Cloudy with Rain 50 10 46 7.8 86 86 NNW 12 19 29.85 1011 3 5 0.25 6.35
12:53 pm 12:53 Cloudy with Light Rain 50 10 47 8.3 89 89 NW 6 9 29.84 1011 6 10 0.27 6.86
1:00 pm 13:00 Cloudy with Light Rain 51 10.6 47 8.3 86 86 NNW 5 7 29.86 1011 6 10 0.00 0.00
1:07 pm 13:07 Cloudy with Light Rain 51 10.6 47 8.3 86 86 NNW 10 17 29.86 1011 7 11 0.01 0.25
1:40 pm 13:40 Cloudy with Light Rain 48 8.9 43 6.1 83 83 NNW 14 22 29.88 1012 6 10 0.07 1.78
1:53 pm 13:53 Cloudy with Light Rain 48 8.9 43 6.1 83 83 NNW 12 19 29.88 1012 8 13 0.08 2.03
2:53 pm 14:53 Cloudy with Light Rain 48 8.9 43 6.1 83 83 W 3 6 29.88 1012 6 10 0.06 1.52
3:53 pm 15:53 Cloudy 49 9.4 43 6.1 80 80 W 3 6 29.87 1012 10 16 0.05 1.27
4:42 pm 16:42 Cloudy 51 10.6 44 6.7 77 77 Calm 29.88 1012 10 16 0.00 0.00
4:53 pm 16:53 Cloudy 50 10 44 6.7 80 80 VRB 5 7 29.88 1012 10 16 0.00 0.00
5:06 pm 17:06 Cloudy 53 11.7 44 6.7 72 72 NNW 10 17 29.88 1012 10 16 0.00 0.00
5:53 pm 17:53 Mostly Cloudy 54 12.2 42 5.6 64 64 NNW 8 13 29.88 1012 10 16 0.00 0.00
6:53 pm 18:53 Mostly Sunny 53 11.7 35 1.7 51 51 NNW 13 20 29.91 1013 10 16 0.00 0.00
7:53 pm 19:53 Mostly Cloudy 52 11.1 33 0.6 49 49 NNW 9 15 29.95 1014 10 16 0.00 0.00
8:53 pm 20:53 Clear 48 8.9 28 -2.2 46 46 NNW 14 22 30.00 1016 10 16 0.00 0.00
9:53 pm 21:53 Clear 46 7.8 25 -3.9 44 44 NNW 15 24 30.06 1018 10 16 0.00 0.00
10:53 pm 22:53 Clear 42 5.6 24 -4.4 49 49 NNW 15 24 30.11 1020 10 16 0.00 0.00
11:53 pm 23:53 Clear 41 5 22 -5.6 47 47 NNW 8 13 30.14 1021 10 16 0.00 0.00

Powered by AerisWeather